VIR1477 ENGM-EGKK

Flight info

Callsign VIR1477
Flight time 2h 6m
Altitude 38000
Route VIPPA1C VIPPA DCT UPGAS DCT TIPAN DCT WECOW DCT BINBO DCT AKOKO N866 BUKUT P7 BARMI BARMI1G
Aircraft A346/H-SDE2E3FGHIJ3J4J5M1RWXY/LB1D1

Departure

Time 2026-05-07 18:02
Airport Oslo-Gardermoen International Airport (ENGM)

Arrival

Time 2026-05-07 20:08
Airport London Gatwick Airport (EGKK)
Time Latitude Longitude Altitude Speed Heading
2026-05-07 17:34 60.19725 11.09975 685 ft 0 kts 106°
2026-05-07 17:49 60.19727 11.09967 687 ft 0 kts 106°
2026-05-07 17:50 60.19733 11.09919 687 ft 0 kts 106°
2026-05-07 17:50 60.19736 11.09875 684 ft 0 kts 81°
2026-05-07 17:50 60.19728 11.09846 684 ft 0 kts 40°
2026-05-07 17:50 60.19712 11.09832 684 ft 0 kts
2026-05-07 17:51 60.19711 11.09832 684 ft 0 kts
2026-05-07 17:54 60.19712 11.09832 693 ft 0 kts
2026-05-07 17:54 60.19724 11.09835 686 ft 3 kts
2026-05-07 17:55 60.19754 11.09828 687 ft 6 kts 351°
2026-05-07 17:55 60.19807 11.09828 689 ft 9 kts
2026-05-07 17:55 60.19883 11.09866 687 ft 14 kts 16°
2026-05-07 17:55 60.19984 11.09925 689 ft 14 kts 17°
2026-05-07 17:56 60.20036 11.10034 686 ft 12 kts 88°
2026-05-07 17:56 60.20018 11.10209 693 ft 14 kts 106°
2026-05-07 17:56 60.19987 11.10428 689 ft 18 kts 106°
2026-05-07 17:56 60.19950 11.10687 686 ft 21 kts 106°
2026-05-07 17:57 60.19908 11.10977 687 ft 23 kts 106°
2026-05-07 17:57 60.19881 11.11172 688 ft 20 kts 106°
2026-05-07 17:57 60.19857 11.11500 689 ft 16 kts 58°
2026-05-07 17:57 60.19965 11.11594 690 ft 18 kts 15°
2026-05-07 17:58 60.20077 11.11672 686 ft 9 kts 52°
2026-05-07 17:58 60.20076 11.11830 688 ft 13 kts 105°
2026-05-07 17:58 60.20068 11.11886 687 ft 0 kts 106°
2026-05-07 17:59 60.20068 11.11887 687 ft 0 kts 106°
2026-05-07 17:59 60.20066 11.11902 690 ft 2 kts 106°
2026-05-07 18:00 60.20060 11.11943 689 ft 4 kts 106°
2026-05-07 18:00 60.20050 11.12007 689 ft 6 kts 110°
2026-05-07 18:00 60.20027 11.12096 690 ft 9 kts 127°
2026-05-07 18:00 60.19968 11.12152 697 ft 12 kts 187°
2026-05-07 18:01 60.19932 11.12137 694 ft 0 kts 194°
2026-05-07 18:01 60.19880 11.12110 689 ft 34 kts 194°
2026-05-07 18:01 60.19321 11.11784 692 ft 115 kts 196°
2026-05-07 18:01 60.18005 11.11028 733 ft 185 kts 196°
2026-05-07 18:02 60.15482 11.09572 2334 ft 189 kts 195°
2026-05-07 18:02 60.14229 11.08852 3208 ft 185 kts 195°
2026-05-07 18:02 60.13000 11.08146 4013 ft 183 kts 195°
2026-05-07 18:03 60.11787 11.07453 4775 ft 183 kts 196°
2026-05-07 18:03 60.10558 11.06753 5532 ft 184 kts 196°
2026-05-07 18:03 60.09319 11.06052 6286 ft 185 kts 196°
2026-05-07 18:03 60.08068 11.05374 6933 ft 192 kts 189°
2026-05-07 18:04 60.06677 11.05452 7403 ft 210 kts 175°
2026-05-07 18:04 60.05183 11.05403 7911 ft 226 kts 192°
2026-05-07 18:04 60.03573 11.04632 8458 ft 243 kts 198°
2026-05-07 18:04 60.01920 11.03609 9030 ft 260 kts 200°
2026-05-07 18:05 60.00142 11.02407 9663 ft 277 kts 201°
2026-05-07 18:05 59.98309 11.01117 10503 ft 283 kts 201°
2026-05-07 18:05 59.96419 10.99779 11222 ft 297 kts 202°
2026-05-07 18:05 59.94420 10.98274 11760 ft 315 kts 208°
2026-05-07 18:06 59.92533 10.95865 12286 ft 331 kts 219°
2026-05-07 18:06 59.90664 10.92973 12807 ft 349 kts 220°
2026-05-07 18:06 59.88705 10.89908 13327 ft 366 kts 220°
2026-05-07 18:06 59.86662 10.86777 14135 ft 373 kts 220°
2026-05-07 18:07 59.84588 10.83655 15026 ft 375 kts 220°
2026-05-07 18:07 59.82488 10.80529 15911 ft 379 kts 220°
2026-05-07 18:07 59.80359 10.77387 16767 ft 383 kts 220°
2026-05-07 18:07 59.78204 10.74224 17613 ft 388 kts 220°
2026-05-07 18:08 59.76014 10.71023 18446 ft 392 kts 220°
2026-05-07 18:08 59.73802 10.67803 19175 ft 396 kts 220°
2026-05-07 18:08 59.71567 10.64554 19871 ft 401 kts 220°
2026-05-07 18:08 59.69297 10.61272 20593 ft 405 kts 220°
2026-05-07 18:09 59.67008 10.57973 21306 ft 410 kts 220°
2026-05-07 18:09 59.64687 10.54627 22026 ft 414 kts 220°
2026-05-07 18:09 59.62339 10.51246 22712 ft 419 kts 221°
2026-05-07 18:09 59.59984 10.47861 23367 ft 423 kts 221°
2026-05-07 18:10 59.57566 10.44389 24007 ft 427 kts 221°
2026-05-07 18:10 59.55157 10.40936 24598 ft 430 kts 221°
2026-05-07 18:10 59.52718 10.37444 25200 ft 433 kts 221°
2026-05-07 18:10 59.50269 10.33947 25780 ft 436 kts 221°
2026-05-07 18:11 59.47796 10.30421 26360 ft 440 kts 221°
2026-05-07 18:11 59.46158 10.28082 26734 ft 442 kts 221°
2026-05-07 18:11 59.42795 10.23302 27448 ft 448 kts 221°
2026-05-07 18:11 59.40257 10.19707 27996 ft 451 kts 221°
2026-05-07 18:12 59.37703 10.16098 28575 ft 454 kts 221°
2026-05-07 18:12 59.35135 10.12477 29283 ft 453 kts 221°
2026-05-07 18:12 59.32584 10.08889 30156 ft 449 kts 221°
2026-05-07 18:12 59.30054 10.05338 30916 ft 446 kts 221°
2026-05-07 18:13 59.27569 10.01851 31619 ft 443 kts 221°
2026-05-07 18:13 59.25061 9.98336 32254 ft 443 kts 221°
2026-05-07 18:13 59.22557 9.94831 32853 ft 442 kts 221°
2026-05-07 18:13 59.20057 9.91329 33417 ft 442 kts 221°
2026-05-07 18:14 59.17550 9.87830 33932 ft 443 kts 221°
2026-05-07 18:14 59.15045 9.84343 34452 ft 443 kts 220°
2026-05-07 18:14 59.12528 9.80845 34957 ft 442 kts 220°
2026-05-07 18:14 59.10026 9.77373 35475 ft 441 kts 220°
2026-05-07 18:15 59.07524 9.73908 35934 ft 441 kts 220°
2026-05-07 18:15 59.05020 9.70449 36132 ft 442 kts 219°
2026-05-07 18:15 59.02502 9.66978 36379 ft 445 kts 219°
2026-05-07 18:15 58.99978 9.63505 36858 ft 444 kts 219°
2026-05-07 18:16 58.97455 9.60041 37296 ft 444 kts 219°
2026-05-07 18:16 58.94933 9.56581 37606 ft 446 kts 218°
2026-05-07 18:16 58.92392 9.53100 37847 ft 449 kts 218°
2026-05-07 18:16 58.89833 9.49607 38100 ft 451 kts 218°
2026-05-07 18:17 58.87255 9.46098 38106 ft 451 kts 218°
2026-05-07 18:17 58.82111 9.39115 38113 ft 452 kts 218°
2026-05-07 18:18 58.76996 9.32193 38104 ft 452 kts 218°
2026-05-07 18:18 58.71843 9.25242 38108 ft 452 kts 218°
2026-05-07 18:19 58.66682 9.18296 38104 ft 452 kts 217°
2026-05-07 18:19 58.61501 9.11357 38111 ft 453 kts 217°
2026-05-07 18:20 58.56331 9.04459 38113 ft 453 kts 217°
2026-05-07 18:20 58.51187 8.97619 38114 ft 453 kts 217°
2026-05-07 18:21 58.45993 8.90737 38115 ft 453 kts 217°
2026-05-07 18:21 58.40807 8.83891 38114 ft 453 kts 217°
2026-05-07 18:22 58.35609 8.77054 38114 ft 453 kts 217°
2026-05-07 18:22 58.30439 8.70278 38113 ft 453 kts 217°
2026-05-07 18:23 58.25241 8.63487 38115 ft 452 kts 217°
2026-05-07 18:23 58.20058 8.56744 38114 ft 452 kts 217°
2026-05-07 18:24 58.14868 8.50008 38108 ft 453 kts 216°
2026-05-07 18:24 58.09651 8.43274 38107 ft 453 kts 216°
2026-05-07 18:25 58.04438 8.36568 38113 ft 453 kts 216°
2026-05-07 18:25 57.99267 8.29940 38115 ft 453 kts 216°
2026-05-07 18:26 57.94014 8.23228 38114 ft 453 kts 216°
2026-05-07 18:26 57.88815 8.16603 38113 ft 454 kts 216°
2026-05-07 18:27 57.83569 8.09948 38110 ft 454 kts 216°
2026-05-07 18:27 57.78323 8.03317 38112 ft 454 kts 216°
2026-05-07 18:28 57.73080 7.96713 38115 ft 454 kts 216°
2026-05-07 18:28 57.67805 7.90090 38098 ft 454 kts 216°
2026-05-07 18:29 57.62576 7.83543 38103 ft 455 kts 215°
2026-05-07 18:29 57.57303 7.76971 38119 ft 454 kts 215°
2026-05-07 18:30 57.52932 7.71543 38103 ft 454 kts 215°
2026-05-07 18:30 57.46803 7.63956 38096 ft 454 kts 215°
2026-05-07 18:31 57.42390 7.58511 38106 ft 454 kts 215°
2026-05-07 18:31 57.37148 7.52059 38110 ft 455 kts 215°
2026-05-07 18:32 57.31852 7.45571 38109 ft 456 kts 215°
2026-05-07 18:32 57.26555 7.39104 38110 ft 456 kts 215°
2026-05-07 18:33 57.21250 7.32648 38111 ft 456 kts 214°
2026-05-07 18:33 57.15951 7.26220 38097 ft 456 kts 214°
2026-05-07 18:34 57.10625 7.19781 38102 ft 458 kts 214°
2026-05-07 18:34 57.05292 7.13361 38111 ft 458 kts 214°
2026-05-07 18:35 56.99946 7.06946 38119 ft 458 kts 214°
2026-05-07 18:35 56.94646 7.00606 38114 ft 457 kts 214°
2026-05-07 18:36 56.89311 6.94247 38102 ft 457 kts 214°
2026-05-07 18:36 56.83968 6.87902 38110 ft 458 kts 214°
2026-05-07 18:37 56.78612 6.81564 38111 ft 458 kts 214°
2026-05-07 18:37 56.73289 6.75286 38111 ft 458 kts 214°
2026-05-07 18:38 56.67926 6.68983 38110 ft 458 kts 214°
2026-05-07 18:38 56.62558 6.62692 38108 ft 460 kts 213°
2026-05-07 18:39 56.57165 6.56397 38118 ft 460 kts 213°
2026-05-07 18:39 56.51763 6.50114 38116 ft 460 kts 213°
2026-05-07 18:40 56.46366 6.43857 38117 ft 460 kts 213°
2026-05-07 18:40 56.40958 6.37609 38108 ft 461 kts 213°
2026-05-07 18:41 56.35537 6.31363 38123 ft 462 kts 213°
2026-05-07 18:41 56.30154 6.25186 38120 ft 461 kts 213°
2026-05-07 18:42 56.24730 6.18984 38116 ft 461 kts 213°
2026-05-07 18:42 56.19314 6.12812 38116 ft 461 kts 213°
2026-05-07 18:43 56.13880 6.06637 38113 ft 462 kts 213°
2026-05-07 18:43 56.08427 6.00464 38121 ft 463 kts 213°
2026-05-07 18:44 56.02974 5.94312 38126 ft 463 kts 213°
2026-05-07 18:44 55.97506 5.88164 38119 ft 463 kts 213°
2026-05-07 18:45 55.92080 5.82083 38119 ft 463 kts 212°
2026-05-07 18:45 55.86615 5.75979 38119 ft 463 kts 212°
2026-05-07 18:46 55.81141 5.69886 38118 ft 463 kts 212°
2026-05-07 18:46 55.75670 5.63817 38122 ft 463 kts 212°
2026-05-07 18:47 55.70197 5.57765 38120 ft 463 kts 212°
2026-05-07 18:47 55.64727 5.51736 38115 ft 462 kts 212°
2026-05-07 18:48 55.59250 5.45718 38118 ft 464 kts 212°
2026-05-07 18:48 55.53793 5.39747 38120 ft 464 kts 212°
2026-05-07 18:49 55.48296 5.33750 38118 ft 464 kts 212°
2026-05-07 18:49 55.42790 5.27763 38119 ft 464 kts 212°
2026-05-07 18:50 55.37288 5.21796 38117 ft 465 kts 212°
2026-05-07 18:50 55.31773 5.15839 38117 ft 465 kts 211°
2026-05-07 18:51 55.26250 5.09895 38117 ft 465 kts 211°
2026-05-07 18:51 55.20770 5.04015 38119 ft 465 kts 211°
2026-05-07 18:52 55.15241 4.98099 38112 ft 465 kts 211°
2026-05-07 18:52 55.09703 4.92192 38119 ft 465 kts 211°
2026-05-07 18:53 55.04202 4.86349 38112 ft 465 kts 211°
2026-05-07 18:53 54.98614 4.80431 38119 ft 465 kts 211°
2026-05-07 18:54 54.93069 4.74576 38118 ft 465 kts 211°
2026-05-07 18:54 54.87545 4.68760 38118 ft 465 kts 211°
2026-05-07 18:55 54.82027 4.62974 38121 ft 464 kts 211°
2026-05-07 18:55 54.76488 4.57182 38120 ft 464 kts 211°
2026-05-07 18:56 54.70950 4.51410 38114 ft 464 kts 211°
2026-05-07 18:56 54.65403 4.45647 38111 ft 464 kts 211°
2026-05-07 18:57 54.59882 4.39975 38108 ft 464 kts 209°
2026-05-07 18:57 54.54172 4.34750 38112 ft 464 kts 207°
2026-05-07 18:58 54.48452 4.29540 38115 ft 464 kts 207°
2026-05-07 18:58 54.42740 4.24357 38115 ft 463 kts 207°
2026-05-07 18:59 54.37066 4.19231 38113 ft 463 kts 207°
2026-05-07 18:59 54.31355 4.14088 38113 ft 463 kts 207°
2026-05-07 19:00 54.25638 4.08958 38109 ft 463 kts 207°
2026-05-07 19:00 54.19925 4.03846 38113 ft 463 kts 207°
2026-05-07 19:01 54.14203 3.98744 38106 ft 463 kts 207°
2026-05-07 19:01 54.08532 3.93700 38108 ft 463 kts 207°
2026-05-07 19:02 54.02822 3.88638 38104 ft 463 kts 207°
2026-05-07 19:02 53.97090 3.83575 38107 ft 463 kts 207°
2026-05-07 19:03 53.91359 3.78535 38103 ft 463 kts 207°
2026-05-07 19:03 53.85626 3.73504 38104 ft 463 kts 207°
2026-05-07 19:04 53.79903 3.68495 38099 ft 463 kts 207°
2026-05-07 19:04 53.74147 3.63472 38107 ft 463 kts 207°
2026-05-07 19:05 53.68440 3.58508 38103 ft 463 kts 207°
2026-05-07 19:05 53.62680 3.53516 38100 ft 463 kts 207°
2026-05-07 19:06 53.56946 3.48556 38094 ft 463 kts 207°
2026-05-07 19:06 53.48342 3.41145 38093 ft 463 kts 207°
2026-05-07 19:07 53.42600 3.36218 38100 ft 462 kts 207°
2026-05-07 19:07 53.39747 3.33776 37909 ft 457 kts 207°
2026-05-07 19:07 53.36952 3.31385 37223 ft 457 kts 207°
2026-05-07 19:08 53.34102 3.28947 36491 ft 460 kts 206°
2026-05-07 19:08 53.31229 3.26498 36151 ft 463 kts 206°
2026-05-07 19:08 53.25453 3.21596 36113 ft 466 kts 206°
2026-05-07 19:09 53.19675 3.16704 36111 ft 466 kts 206°
2026-05-07 19:09 53.13932 3.11855 36113 ft 465 kts 206°
2026-05-07 19:10 53.08161 3.06991 36107 ft 464 kts 206°
2026-05-07 19:10 53.02384 3.02138 36084 ft 464 kts 206°
2026-05-07 19:11 52.99501 2.99722 35961 ft 458 kts 206°
2026-05-07 19:11 52.96660 2.97345 35344 ft 458 kts 206°
2026-05-07 19:11 52.93796 2.94959 34531 ft 462 kts 206°
2026-05-07 19:11 52.90921 2.92560 33814 ft 463 kts 206°
2026-05-07 19:12 52.88039 2.90158 33071 ft 463 kts 206°
2026-05-07 19:12 52.85155 2.87759 32273 ft 464 kts 206°
2026-05-07 19:12 52.82294 2.85381 31463 ft 466 kts 206°
2026-05-07 19:12 52.79355 2.82944 30627 ft 468 kts 206°
2026-05-07 19:13 52.76470 2.80556 29739 ft 470 kts 206°
2026-05-07 19:13 52.73539 2.78137 28883 ft 469 kts 206°
2026-05-07 19:13 52.70632 2.75749 28299 ft 463 kts 206°
2026-05-07 19:13 52.67753 2.73381 27657 ft 458 kts 207°
2026-05-07 19:14 52.64912 2.71040 27053 ft 453 kts 207°
2026-05-07 19:14 52.62135 2.68754 26469 ft 449 kts 207°
2026-05-07 19:14 52.59352 2.66467 26128 ft 446 kts 207°
2026-05-07 19:14 52.56554 2.64171 26093 ft 448 kts 207°
2026-05-07 19:15 52.53763 2.61884 26087 ft 449 kts 207°
2026-05-07 19:15 52.50966 2.59599 26089 ft 448 kts 207°
2026-05-07 19:15 52.48164 2.57316 26083 ft 448 kts 207°
2026-05-07 19:15 52.45362 2.55036 26084 ft 448 kts 207°
2026-05-07 19:16 52.42569 2.52763 26085 ft 448 kts 207°
2026-05-07 19:16 52.39805 2.50515 26088 ft 448 kts 207°
2026-05-07 19:16 52.37005 2.48242 26086 ft 448 kts 207°
2026-05-07 19:16 52.34209 2.45976 26092 ft 447 kts 207°
2026-05-07 19:17 52.31421 2.43719 26088 ft 447 kts 207°
2026-05-07 19:17 52.28624 2.41459 26087 ft 447 kts 207°
2026-05-07 19:17 52.26778 2.39969 26087 ft 447 kts 207°
2026-05-07 19:17 52.23044 2.36966 26080 ft 446 kts 207°
2026-05-07 19:18 52.21202 2.35484 26078 ft 444 kts 207°
2026-05-07 19:18 52.18478 2.33294 26070 ft 428 kts 207°
2026-05-07 19:18 52.15857 2.31189 26070 ft 411 kts 207°
2026-05-07 19:18 52.13343 2.29174 26070 ft 395 kts 207°
2026-05-07 19:19 52.10919 2.27234 26013 ft 381 kts 207°
2026-05-07 19:19 52.08533 2.25326 25672 ft 375 kts 207°
2026-05-07 19:19 52.06196 2.23459 25219 ft 373 kts 207°
2026-05-07 19:19 52.03868 2.21602 24773 ft 371 kts 207°
2026-05-07 19:20 52.01557 2.19761 24339 ft 369 kts 207°
2026-05-07 19:20 51.99297 2.17965 23911 ft 366 kts 208°
2026-05-07 19:20 51.97006 2.16142 23465 ft 364 kts 207°
2026-05-07 19:20 51.94735 2.14337 22966 ft 362 kts 207°
2026-05-07 19:21 51.92472 2.12541 22491 ft 360 kts 207°
2026-05-07 19:21 51.90233 2.10766 22022 ft 358 kts 207°
2026-05-07 19:21 51.88009 2.09006 21550 ft 355 kts 207°
2026-05-07 19:21 51.85791 2.07252 21097 ft 353 kts 207°
2026-05-07 19:22 51.83588 2.05511 20654 ft 351 kts 207°
2026-05-07 19:22 51.81399 2.03784 20214 ft 349 kts 207°
2026-05-07 19:22 51.79221 2.02068 19770 ft 347 kts 207°
2026-05-07 19:22 51.77053 2.00364 19341 ft 345 kts 207°
2026-05-07 19:23 51.74897 1.98669 18928 ft 343 kts 207°
2026-05-07 19:23 51.72754 1.96986 18489 ft 341 kts 207°
2026-05-07 19:23 51.70628 1.95317 18067 ft 339 kts 207°
2026-05-07 19:23 51.68521 1.93627 17608 ft 337 kts 209°
2026-05-07 19:24 51.66557 1.91699 17170 ft 334 kts 215°
2026-05-07 19:24 51.64717 1.89436 16753 ft 331 kts 221°
2026-05-07 19:24 51.63049 1.86898 16315 ft 329 kts 226°
2026-05-07 19:24 51.61521 1.84169 15883 ft 327 kts 228°
2026-05-07 19:25 51.60027 1.81431 15463 ft 325 kts 228°
2026-05-07 19:25 51.58541 1.78702 15065 ft 323 kts 228°
2026-05-07 19:25 51.57060 1.75992 14669 ft 321 kts 228°
2026-05-07 19:25 51.55588 1.73310 14265 ft 319 kts 228°
2026-05-07 19:26 51.54121 1.70644 14079 ft 317 kts 228°
2026-05-07 19:26 51.52649 1.67973 14078 ft 319 kts 228°
2026-05-07 19:26 51.51179 1.65297 14070 ft 319 kts 229°
2026-05-07 19:26 51.49842 1.62496 14068 ft 320 kts 235°
2026-05-07 19:27 51.48681 1.59427 14065 ft 320 kts 241°
2026-05-07 19:27 51.47737 1.56169 14067 ft 321 kts 247°
2026-05-07 19:27 51.46948 1.52815 14068 ft 321 kts 249°
2026-05-07 19:27 51.46184 1.49451 14068 ft 321 kts 249°
2026-05-07 19:28 51.45416 1.46074 14071 ft 321 kts 249°
2026-05-07 19:28 51.44647 1.42710 14071 ft 321 kts 248°
2026-05-07 19:28 51.43696 1.39475 14064 ft 320 kts 238°
2026-05-07 19:28 51.42377 1.36614 14067 ft 319 kts 227°
2026-05-07 19:29 51.40744 1.34202 14068 ft 319 kts 218°
2026-05-07 19:29 51.38969 1.32063 14070 ft 319 kts 216°
2026-05-07 19:29 51.37163 1.29951 14069 ft 319 kts 216°
2026-05-07 19:29 51.35389 1.27878 14069 ft 319 kts 216°
2026-05-07 19:30 51.33607 1.25789 14065 ft 319 kts 216°
2026-05-07 19:30 51.31813 1.23684 14063 ft 319 kts 216°
2026-05-07 19:30 51.30021 1.21576 14066 ft 319 kts 216°
2026-05-07 19:30 51.28235 1.19474 14067 ft 319 kts 216°
2026-05-07 19:31 51.26443 1.17364 14068 ft 319 kts 216°
2026-05-07 19:31 51.24653 1.15260 14067 ft 319 kts 216°
2026-05-07 19:31 51.22865 1.13158 14066 ft 319 kts 216°
2026-05-07 19:31 51.21073 1.11053 14067 ft 319 kts 216°
2026-05-07 19:32 51.19285 1.08955 14063 ft 319 kts 216°
2026-05-07 19:32 51.17494 1.06855 14066 ft 319 kts 216°
2026-05-07 19:32 51.15696 1.04750 14067 ft 319 kts 216°
2026-05-07 19:32 51.13909 1.02661 14066 ft 319 kts 216°
2026-05-07 19:33 51.12115 1.00564 14071 ft 319 kts 216°
2026-05-07 19:33 51.10349 0.98504 14069 ft 319 kts 216°
2026-05-07 19:33 51.08555 0.96413 14069 ft 319 kts 216°
2026-05-07 19:33 51.06855 0.94181 13947 ft 314 kts 224°
2026-05-07 19:34 51.05434 0.91546 13399 ft 315 kts 234°
2026-05-07 19:34 51.04322 0.88547 12923 ft 314 kts 242°
2026-05-07 19:34 51.03373 0.85397 12488 ft 312 kts 244°
2026-05-07 19:34 51.02461 0.82275 12060 ft 310 kts 244°
2026-05-07 19:35 51.01555 0.79185 11642 ft 308 kts 244°
2026-05-07 19:35 51.00643 0.76106 11219 ft 306 kts 244°
2026-05-07 19:35 50.99746 0.73099 10807 ft 304 kts 244°
2026-05-07 19:35 50.98838 0.70067 10395 ft 302 kts 244°
2026-05-07 19:36 50.97935 0.67058 10002 ft 300 kts 244°
2026-05-07 19:36 50.97038 0.64073 9575 ft 299 kts 244°
2026-05-07 19:36 50.96143 0.61100 9127 ft 297 kts 244°
2026-05-07 19:36 50.95254 0.58151 8964 ft 296 kts 244°
2026-05-07 19:37 50.94372 0.55233 8954 ft 286 kts 244°
2026-05-07 19:37 50.93529 0.52442 8786 ft 277 kts 244°
2026-05-07 19:37 50.92708 0.49731 8603 ft 268 kts 244°
2026-05-07 19:37 50.91916 0.47108 8439 ft 260 kts 245°
2026-05-07 19:38 50.91447 0.44363 8250 ft 252 kts 266°
2026-05-07 19:38 50.91641 0.41692 8093 ft 245 kts 283°
2026-05-07 19:38 50.92109 0.39128 7975 ft 240 kts 286°
2026-05-07 19:38 50.92585 0.36582 7973 ft 241 kts 283°
2026-05-07 19:39 50.92971 0.33992 7969 ft 241 kts 281°
2026-05-07 19:39 50.93331 0.31383 7969 ft 241 kts 281°
2026-05-07 19:39 50.93684 0.28776 7972 ft 241 kts 281°
2026-05-07 19:39 50.94033 0.26167 7975 ft 241 kts 281°
2026-05-07 19:40 50.94381 0.23561 7975 ft 241 kts 281°
2026-05-07 19:40 50.94730 0.20929 7979 ft 242 kts 281°
2026-05-07 19:40 50.95080 0.18314 7984 ft 241 kts 281°
2026-05-07 19:40 50.95428 0.15705 7992 ft 241 kts 281°
2026-05-07 19:41 50.95776 0.13095 7996 ft 241 kts 281°
2026-05-07 19:41 50.96121 0.10482 8004 ft 242 kts 281°
2026-05-07 19:41 50.96461 0.07898 8011 ft 241 kts 281°
2026-05-07 19:41 50.96812 0.05236 8020 ft 241 kts 281°
2026-05-07 19:42 50.97156 0.02627 8030 ft 240 kts 281°
2026-05-07 19:42 50.97490 0.00098 7818 ft 237 kts 281°
2026-05-07 19:42 50.97831 -0.02517 7483 ft 238 kts 281°
2026-05-07 19:42 50.98155 -0.05089 7193 ft 236 kts 281°
2026-05-07 19:43 50.98466 -0.07607 7069 ft 236 kts 281°
2026-05-07 19:43 50.98781 -0.10185 7073 ft 238 kts 281°
2026-05-07 19:43 50.99098 -0.12777 7066 ft 237 kts 281°
2026-05-07 19:43 50.99414 -0.15374 7065 ft 237 kts 281°
2026-05-07 19:44 50.99728 -0.17953 7071 ft 237 kts 281°
2026-05-07 19:44 50.99947 -0.20545 7062 ft 237 kts 274°
2026-05-07 19:44 51.00009 -0.23156 7067 ft 236 kts 271°
2026-05-07 19:44 51.00038 -0.25752 7070 ft 237 kts 271°
2026-05-07 19:45 51.00062 -0.28386 7064 ft 237 kts 271°
2026-05-07 19:45 51.00085 -0.30969 6958 ft 232 kts 271°
2026-05-07 19:45 51.00106 -0.33557 6550 ft 236 kts 271°
2026-05-07 19:45 51.00127 -0.36207 6192 ft 237 kts 271°
2026-05-07 19:46 51.00147 -0.38831 5918 ft 235 kts 271°
2026-05-07 19:46 51.00167 -0.41385 5765 ft 227 kts 271°
2026-05-07 19:46 51.00187 -0.43857 5634 ft 219 kts 271°
2026-05-07 19:46 51.00207 -0.46238 5487 ft 210 kts 271°
2026-05-07 19:47 51.00227 -0.48514 5304 ft 201 kts 271°
2026-05-07 19:47 51.00246 -0.50701 5103 ft 196 kts 271°
2026-05-07 19:47 51.00266 -0.52867 4813 ft 195 kts 271°
2026-05-07 19:47 51.00288 -0.55067 4483 ft 195 kts 271°
2026-05-07 19:48 51.00310 -0.57230 4214 ft 195 kts 271°
2026-05-07 19:48 51.00331 -0.59381 3982 ft 193 kts 270°
2026-05-07 19:48 51.00354 -0.61518 3974 ft 195 kts 271°
2026-05-07 19:48 51.00376 -0.63688 3971 ft 195 kts 271°
2026-05-07 19:49 51.00460 -0.65813 3847 ft 191 kts 282°
2026-05-07 19:49 51.01076 -0.67612 3486 ft 192 kts 321°
2026-05-07 19:49 51.02276 -0.68373 3147 ft 187 kts
2026-05-07 19:49 51.03503 -0.67845 2977 ft 182 kts 26°
2026-05-07 19:50 51.04643 -0.66933 2978 ft 183 kts 30°
2026-05-07 19:50 51.05782 -0.65959 2971 ft 183 kts 30°
2026-05-07 19:50 51.06906 -0.64988 2970 ft 183 kts 30°
2026-05-07 19:50 51.08023 -0.63925 2964 ft 182 kts 41°
2026-05-07 19:51 51.08937 -0.62496 2965 ft 181 kts 49°
2026-05-07 19:51 51.09783 -0.60983 2967 ft 181 kts 50°
2026-05-07 19:51 51.10604 -0.59488 2966 ft 181 kts 50°
2026-05-07 19:51 51.11352 -0.57882 2961 ft 180 kts 68°
2026-05-07 19:52 51.11499 -0.55935 2975 ft 178 kts 94°
2026-05-07 19:52 51.11332 -0.53977 2978 ft 178 kts 99°
2026-05-07 19:52 51.11112 -0.52031 2988 ft 178 kts 100°
2026-05-07 19:52 51.10884 -0.50086 2987 ft 178 kts 101°
2026-05-07 19:53 51.10656 -0.48151 2984 ft 178 kts 101°
2026-05-07 19:53 51.10425 -0.46205 2985 ft 178 kts 101°
2026-05-07 19:53 51.10193 -0.44267 2989 ft 178 kts 101°
2026-05-07 19:53 51.09961 -0.42322 2983 ft 178 kts 101°
2026-05-07 19:54 51.09730 -0.40381 2990 ft 178 kts 101°
2026-05-07 19:54 51.09501 -0.38461 2985 ft 178 kts 101°
2026-05-07 19:54 51.09269 -0.36518 2994 ft 178 kts 101°
2026-05-07 19:54 51.09035 -0.34555 2987 ft 178 kts 101°
2026-05-07 19:55 51.08804 -0.32611 2993 ft 178 kts 101°
2026-05-07 19:55 51.08571 -0.30665 2989 ft 178 kts 101°
2026-05-07 19:55 51.08340 -0.28727 2993 ft 178 kts 101°
2026-05-07 19:55 51.08107 -0.26781 2990 ft 178 kts 101°
2026-05-07 19:56 51.07860 -0.24812 2990 ft 178 kts 105°
2026-05-07 19:56 51.07207 -0.23177 2971 ft 179 kts 143°
2026-05-07 19:56 51.06015 -0.22603 3000 ft 183 kts 174°
2026-05-07 19:56 51.04728 -0.22613 3005 ft 184 kts 180°
2026-05-07 19:57 51.03444 -0.22711 2991 ft 184 kts 180°
2026-05-07 19:57 51.02164 -0.22824 2989 ft 184 kts 181°
2026-05-07 19:57 51.00878 -0.22939 2988 ft 184 kts 181°
2026-05-07 19:57 50.99616 -0.23053 2987 ft 184 kts 181°
2026-05-07 19:58 50.98312 -0.23170 2966 ft 184 kts 180°
2026-05-07 19:58 50.97028 -0.23295 2963 ft 185 kts 185°
2026-05-07 19:58 50.95867 -0.24125 2949 ft 189 kts 223°
2026-05-07 19:58 50.95302 -0.26003 2957 ft 193 kts 264°
2026-05-07 19:59 50.95512 -0.28102 2985 ft 194 kts 287°
2026-05-07 19:59 50.95950 -0.30124 2977 ft 194 kts 290°
2026-05-07 19:59 50.96420 -0.32131 2969 ft 194 kts 290°
2026-05-07 19:59 50.96894 -0.34135 2967 ft 193 kts 290°
2026-05-07 20:00 50.97371 -0.36133 2965 ft 194 kts 291°
2026-05-07 20:00 50.97846 -0.38137 2965 ft 194 kts 290°
2026-05-07 20:00 50.98317 -0.40122 2969 ft 194 kts 290°
2026-05-07 20:00 50.98794 -0.42127 2967 ft 194 kts 290°
2026-05-07 20:01 50.99269 -0.44124 2969 ft 194 kts 290°
2026-05-07 20:01 50.99744 -0.46127 2973 ft 193 kts 290°
2026-05-07 20:01 51.00220 -0.48133 2970 ft 193 kts 290°
2026-05-07 20:01 51.00804 -0.50046 2949 ft 192 kts 313°
2026-05-07 20:02 51.01922 -0.51119 2975 ft 190 kts 343°
2026-05-07 20:02 51.03201 -0.51637 2997 ft 189 kts 349°
2026-05-07 20:02 51.04504 -0.52067 2986 ft 189 kts 350°
2026-05-07 20:02 51.05798 -0.52480 2987 ft 189 kts 351°
2026-05-07 20:03 51.07098 -0.52882 2980 ft 189 kts 355°
2026-05-07 20:03 51.07952 -0.52830 2957 ft 185 kts 19°
2026-05-07 20:03 51.09309 -0.51252 2999 ft 182 kts 48°
2026-05-07 20:03 51.09870 -0.50273 2988 ft 178 kts 55°
2026-05-07 20:04 51.10471 -0.48664 2956 ft 161 kts 68°
2026-05-07 20:04 51.10851 -0.46998 2975 ft 158 kts 73°
2026-05-07 20:04 51.11264 -0.44773 2980 ft 158 kts 76°
2026-05-07 20:04 51.11450 -0.43629 2985 ft 158 kts 77°
2026-05-07 20:05 51.11703 -0.41923 2943 ft 158 kts 78°
2026-05-07 20:05 51.11938 -0.40231 2734 ft 157 kts 79°
2026-05-07 20:05 51.12167 -0.38529 2528 ft 157 kts 79°
2026-05-07 20:05 51.12402 -0.36773 2299 ft 157 kts 79°
2026-05-07 20:06 51.12627 -0.35096 2101 ft 157 kts 79°
2026-05-07 20:06 51.12860 -0.33363 1874 ft 158 kts 79°
2026-05-07 20:06 51.13086 -0.31690 1660 ft 153 kts 79°
2026-05-07 20:06 51.13303 -0.30087 1453 ft 144 kts 79°
2026-05-07 20:07 51.13517 -0.28521 1252 ft 144 kts 79°
2026-05-07 20:07 51.13728 -0.26955 1030 ft 144 kts 79°
2026-05-07 20:07 51.13934 -0.25405 838 ft 142 kts 77°
2026-05-07 20:07 51.14160 -0.23865 644 ft 142 kts 78°
2026-05-07 20:08 51.14360 -0.22331 458 ft 141 kts 77°
2026-05-07 20:08 51.14584 -0.20749 249 ft 140 kts 77°
2026-05-07 20:08 51.14811 -0.19098 219 ft 92 kts 79°
2026-05-07 20:08 51.14885 -0.18510 216 ft 0 kts 77°
2026-05-07 20:09 51.14888 -0.18487 218 ft 7 kts 77°
2026-05-07 20:09 51.14914 -0.18310 220 ft 21 kts 77°
2026-05-07 20:09 51.14967 -0.18055 216 ft 10 kts 69°
2026-05-07 20:10 51.15071 -0.17780 219 ft 3 kts 32°
2026-05-07 20:10 51.15105 -0.17763 217 ft 4 kts
2026-05-07 20:10 51.15147 -0.17732 222 ft 7 kts 36°
2026-05-07 20:10 51.15179 -0.17668 219 ft 0 kts 66°
2026-05-07 20:11 51.15181 -0.17659 219 ft 2 kts 69°
2026-05-07 20:11 51.15193 -0.17600 218 ft 7 kts 74°
2026-05-07 20:12 51.15210 -0.17493 212 ft 10 kts 76°
2026-05-07 20:12 51.15221 -0.17419 218 ft 11 kts 76°
2026-05-07 20:13 51.15224 -0.17404 218 ft 12 kts 76°
2026-05-07 20:14 51.15236 -0.17347 218 ft 0 kts 48°
2026-05-07 20:14 51.15237 -0.17345 218 ft 0 kts 48°
2026-05-07 20:14 51.15238 -0.17344 217 ft 0 kts 48°
2026-05-07 20:16 51.15238 -0.17343 217 ft 0 kts 48°
2026-05-07 20:17 51.15239 -0.17343 217 ft 0 kts 48°
2026-05-07 20:18 51.15245 -0.17335 222 ft 2 kts 31°
2026-05-07 20:19 51.15268 -0.17331 216 ft 5 kts 348°
2026-05-07 20:19 51.15315 -0.17352 218 ft 9 kts 344°
2026-05-07 20:19 51.15390 -0.17384 219 ft 13 kts 346°
2026-05-07 20:19 51.15494 -0.17422 215 ft 17 kts 347°
2026-05-07 20:20 51.15626 -0.17468 215 ft 17 kts 348°
2026-05-07 20:20 51.15698 -0.17493 215 ft 7 kts 349°
2026-05-07 20:20 51.15758 -0.17486 218 ft 10 kts
2026-05-07 20:20 51.15807 -0.17500 219 ft 3 kts 346°
2026-05-07 20:21 51.15839 -0.17513 217 ft 6 kts 347°